COSMOS 2218

Satellite information

Favourite Embed

Satellite Type and Status

PAYLOADIN ORBIT

Key statistics

Satellite COSMOS 2218 at a glance.

Uptime

11884

Days in orbit

Revolutions

≈ 13.7

Per day

Orbit

LEO

Low Earth Orbit

Inclination

82.9

Latest

Satellite identification and parameters

Extended collection of information and parameters for COSMOS 2218.

Object identification

Identified? True

Debris? False

Object name: COSMOS 2218

International designator: 1992-073A

Object number (NORAD): 22207

Object ID (CCSDS): 22207

Country: COMMONWEALTH OF INDEPENDENT STATES (CIS)

Current information (Y/N): Y

RCS size: LARGE

Orbital parameters

Period: 104.876 minutes

Inclination: 82.9215 deg

SMA: 7366.769 km

Apoapsis: 1013.286 km

Periapsis: 963.982 km

RAAN: 72.0201 deg

Eccentricy: 0.0033464

Argument of periapsis: 35.5001 deg

Mean anomaly: 18.7503 deg

Mean motion: 13.73052595 rev/day

Mean motion (dot): 0.00000063 rev/day2

B* drag term: 0.000051292 1/REarth

Two-line elements (TLE)

Creation date: May 12, 2025, 10:36 p.m.

Reference frame: TEME

Reference center: EARTH

Epoch: May 12, 2025, 8:50 p.m. UTC

TLE line 0: 0 COSMOS 2218

TLE line 1: 1 22207U 92073A 25132.86850059 .00000063 00000-0 51292-4 0 9990

TLE line 2: 2 22207 82.9215 72.0201 0033464 35.5001 18.7503 13.73052595630270

Live tracking on map

Real-time ground track for satellite COSMOS 2218.

In-orbit conjunctions

A list of the most updated potential collisions computed for object COSMOS 2218.

Target Orbit TCA Probability of collision Miss distance Type
THORAD AGENA D DEB SSO 2025-01-30 16:47:12 0.0002065934 192.0 (m) DEBRIS
FENGYUN 1C DEB SSO 2024-08-05 17:13:19 0.0001537135 338.0 (m) DEBRIS

Associated space launch

Navigation satellite providing location information for the Tsiklon-B navigation system

COSMOS 2218 was lifted into orbit during the mission ‘Kosmos-3M | Parus 78’, on board a Kosmos-3M space rocket.

The launch took place on Oct. 29, 1992, 10:40 a.m. from 133/3 (133L).

For more information about the launch, click the button.

Launch to space Kosmos-3M | Parus 78
Kosmos-3M | Parus 78

Agency: N/A

Status: Launch Successful

Launch date: Oct. 29, 1992, 10:40 a.m. UTC

Rocket: Kosmos-3M

Launch pad: 133/3 (133L)

Location: Plesetsk Cosmodrome, Russian Federation

...

Latest news about this satellite

There are no fresh news available about this satellite. Check back as we update our databases every day.


Newsletter sign-up

Weekly statistics, charts and insights to help you stay on top of the space industry.